Home   Weather   Pomona   Past weeks

Flag for USA Past Weather in Pomona, California, USA — Yesterday and Last 2 Weeks

Now
52 °F

Partly cloudy.


Feels Like: 48 °F
Forecast: 45 / 58 °F
Wind: 12 mph from West

Location: Chino Airport

Current Time: Jan 20, 2017 at 8:41:50 pm

Latest Report: Jan 20, 2017 at 7:53 pm


Visibility: 10 mi

Pressure: 29.54 "Hg

Humidity: 83%

Dew Point: 47 °F

Location of PomonaLocation

Past Weather in Pomona — Graph

°F

Pomona Temperature Yesterday

Maximum temperature yesterday: 62 °F (at 12:53 pm)
Minimum temperature yesterday: 50 °F (at 5:53 am)
Average temperature yesterday: 54 °F

High & Low Weather Summary for the Past Weeks

 TemperatureHumidityPressure
High78 °F (Jan 8, 1:53 pm)100% (Jan 20, 7:02 am)30.24 "Hg (Jan 20, 7:02 am)
Low39 °F (Jan 18, 5:53 am)24% (Jan 17, 1:53 pm)29.41 "Hg (Jan 20, 2:53 pm)
Average55 °F79%30.05 "Hg
* Reported Jan 5 6:53 pm — Jan 20 6:53 pm, Pomona, Weather by CustomWeather, © 2017

Note: Actual official high and low records may vary slightly from our data, if they occured in-between our weather recording intervals... More about our weather records

Advertising

Pomona Weather History for the Previous 24 Hours

Scroll right to see more
 ConditionsComfort  
Time TempWeatherWind HumidityBarometerVisibility
6:53 pm
Fri, Jan 20
52 °FPassing clouds.14 mph77%29.52 "Hg10 mi
5:53 pm53 °FPassing clouds.12 mph77%29.48 "Hg10 mi
4:53 pm54 °FLight rain. Partly sunny.18 mph83%29.46 "Hg7 mi
3:53 pm56 °FLight rain. Mostly cloudy.22 mph77%29.44 "Hg7 mi
2:53 pm56 °FLight rain. Partly sunny.15 mph84%29.41 "Hg7 mi
1:53 pm59 °FPartly sunny.23 mph81%29.45 "Hg8 mi
1:28 pm51 °FFog.12 mph92%29.48 "Hg3 mi
12:53 pm51 °FRain. Fog.8 mph92%29.49 "Hg1 mi
11:53 am50 °FRain. Fog.5 mph100%29.57 "Hg2 mi
10:53 am50 °FLight rain. Fog.5 mph100%29.65 "Hg1 mi
9:53 am50 °FLight rain. Fog.5 mph100%29.71 "Hg3 mi
9:03 am50 °FLight rain. Fog.5 mph100%29.74 "Hg3 mi
7:02 am50 °FFog.No wind100%29.78 "Hg4 mi
3:53 am52 °FMostly cloudy.5 mph93%29.80 "Hg7 mi
2:53 am52 °FMostly cloudy.No wind93%29.83 "Hg7 mi
2:30 am52 °FOvercast.3 mph93%29.85 "Hg8 mi
2:00 am52 °FPartly cloudy.3 mph93%29.86 "Hg7 mi
12:55 am52 °FLight rain. Fog.No wind93%29.87 "Hg4 mi
12:31 am52 °FMostly cloudy.No wind89%29.87 "Hg8 mi
11:53 pm
Thu, Jan 19
52 °FLight rain. Fog.No wind89%29.87 "Hg4 mi
11:44 pm52 °FLight rain. Mostly cloudy.3 mph89%29.88 "Hg7 mi
11:06 pm52 °FMostly cloudy.3 mph89%29.90 "Hg9 mi
10:53 pm52 °FLight rain. Fog.8 mph89%29.90 "Hg3 mi
10:36 pm53 °FLight rain. Fog.5 mph89%29.92 "Hg4 mi
10:22 pm53 °FRain. Fog.5 mph86%29.92 "Hg2 mi
9:53 pm54 °FLight rain. Fog.No wind90%29.91 "Hg6 mi
8:53 pm54 °FFog.6 mph86%29.91 "Hg6 mi
Weather by CustomWeather, © 2017

See weather overviewHow to use our weather pages